Weather Service Report


445 
ASUS45 KABQ 232101
RWRNM 
NEW MEXICO REGIONAL WEATHER ROUNDUP
NATIONAL WEATHER SERVICE ALBUQUERQUE NM
200 PM MST SUN FEB 23 2020

NOTE: "FAIR" MEANS FEW OR NO CLOUDS BELOW 12,000 FEET AGL WITH NO
       SIGNIFICANT WEATHER OR OBSTRUCTIONS TO VISION.

      THIS PRODUCT IS RELEASED AS TWO VERSIONS.  ONE VERSION NEAR
      THE TOP OF THE HOUR CONTAINING PRELIMINARY DATA FROM ALBUQUERQUE
      AND OTHER STATIONS.  A FINAL VERSION WITH ADDITIONAL DATA IS 
      ISSUED ABOUT 10 MINUTES AFTER THE HOUR.
 
NMZ201-203-204-210>218-232200-
NORTHWEST PLATEAU/NORTHCENTRAL MOUNTAINS
  
CITY           SKY/WX    TMP DP  RH WIND       PRES   REMARKS
FARMINGTON     PTSUNNY   43  36  76 W18G28    29.98F                  
LOS ALAMOS     PTSUNNY   40  30  66 CALM      29.92S                  
SANTA FE       CLOUDY    39  33  79 N8        29.91R WCI  33          
TAOS           LGT RAIN  39  28  64 NW14G24   29.89F WCI  31          
ANGEL FIRE     CLOUDY    34  24  66 W9G22     29.87F WCI  26          

$$
NMZ202-205>209-241-402-403-232200-
WESTCENTRAL MOUNTAINS/SOUTHWEST MOUNTAINS
  
CITY           SKY/WX    TMP DP  RH WIND       PRES   REMARKS
GALLUP         LGT RAIN  38  35  89 W13       30.05F WCI  30          
GRANTS         PTSUNNY   43  29  57 W21G30    30.02F                  
SILVER CITY    PTSUNNY   49  30  47 W20G33    30.09F                  

$$
NMZ407-409-411-412-232200-
SOUTHERN DESERTS
  
CITY           SKY/WX    TMP DP  RH WIND       PRES   REMARKS
DEMING         PTSUNNY   55  28  35 W21G31    30.09F                  
LAS CRUCES     FAIR      58  26  30 W29G43    30.05S                  
HOLLOMAN AFB   FAIR      61  24  24 W20G29    29.97F                  
ALAMOGORDO     FAIR      61  21  21 W21G32    29.98F                  
T OR C         FAIR      60  21  22 W14G26    29.98F                  

$$
NMZ219>223-232200-
CENTRAL VALLEYS/CENTRAL HIGHLANDS
  
CITY           SKY/WX    TMP DP  RH WIND       PRES   REMARKS
ALBUQUERQUE    PTSUNNY   47  31  53 W17G25    29.96F                  
DOUBLE EAGLE   PTSUNNY   46  30  53 W18G26    29.97S                  
CLINES CORNERS PTSUNNY   38  30  73 W30G43    29.90F WCI  26          
BELEN          CLOUDY    49  28  45 W23G30    29.98F                  
SOCORRO        NOT AVBL                                               

$$
NMZ224>226-239-240-232200-
SOUTHCENTRAL MOUNTAINS
  
CITY           SKY/WX    TMP DP  RH WIND       PRES   REMARKS
RUIDOSO        MIX PCPN  37  28  70 W15G23    29.97S WCI  28          

$$
NMZ227>231-232200-
NORTHEAST HIGHLANDS/NORTHEAST PLAINS
  
CITY           SKY/WX    TMP DP  RH WIND       PRES   REMARKS
LAS VEGAS        N/A     47  23  38 N8        29.81F                  
RATON          FAIR      45  30  55 NE21G29   29.80F                  
CLAYTON        LGT RAIN  42  36  79 NW12G24   29.77R                  

$$
NMZ232>237-232200-
EASTCENTRAL PLAINS
  
CITY           SKY/WX    TMP DP  RH WIND       PRES   REMARKS
SANTA ROSA     MOCLDY    53  28  38 W28G35    29.81F                  
TUCUMCARI        N/A     61  33  35 MISG      29.74F                  
CANNON AFB       N/A     60  28  29 W24G38    29.78F                  
CLOVIS AIRPORT FAIR      61  31  32 W25G36    29.78F                  

$$
NMZ028-029-033-238-232200-
SOUTHEAST PLAINS
  
CITY           SKY/WX    TMP DP  RH WIND       PRES   REMARKS
ROSWELL        FAIR      67  23  19 W22G46    29.84F                  
ARTESIA        FAIR      66  19  16 W23G36    29.88F                  
CARLSBAD       FAIR      67  22  18 W28G45    29.89F                  
HOBBS          SUNNY     68  23  18 SW35G47   29.86F                  


$$
  

Return to Home page


Western Regional Climate Center, wrcc@dri.edu